Tracking 20721 objects as of 31-May-2020
HD Live streaming from Space Station
objects crossing your sky now
Track the CREW DRAGON and SPACE STATION

DELTA 1 DEB

Track DELTA 1 DEB now!
10-day predictions


NORAD ID: 12193
Int'l Code: 1978-026AJ
Perigee: 791.0 km
Apogee: 1,182.9 km
Inclination: 98.9 °
Period: 104.7 minutes
Semi major axis: 7357 km
RCS: 0.0173 m2 (small)
Launch date: March 5, 1978
Source: United States (US)
Launch site: AIR FORCE WESTERN TEST RANGE (AFWTR)

Note: This is SATELLITE DEBRIS
aabbcc
Your satellite tracking list
Your tracking list is empty




NASA's NSSDC Master Catalog

Two Line Element Set (TLE):
1 12193U 78026AJ  20151.68947214 +.00000338 +00000-0 +30320-3 0  9994
2 12193 098.8973 083.9278 0266358 007.4073 353.0895 13.75519615946656
Source of the keplerian elements: AFSPC